TimeCDT,TemperatureF,Dew PointF,Humidity,Sea Level PressureIn,VisibilityMPH,Wind Direction,Wind SpeedMPH,Gust SpeedMPH,PrecipitationIn,Events,Conditions,WindDirDegrees,DateUTC
12:51 AM,84.0,69.1,61,29.96,10.0,South,8.1,-,N/A,,Clear,190,2013-07-11 05:51:00
1:51 AM,82.0,69.1,65,29.97,10.0,South,6.9,-,N/A,,Clear,190,2013-07-11 06:51:00
2:51 AM,80.1,70.0,71,29.98,10.0,South,3.5,-,N/A,,Clear,180,2013-07-11 07:51:00
3:51 AM,79.0,70.0,74,29.99,10.0,South,3.5,-,N/A,,Clear,190,2013-07-11 08:51:00
4:51 AM,78.1,70.0,76,29.98,10.0,Calm,Calm,-,N/A,,Clear,0,2013-07-11 09:51:00
5:51 AM,77.0,71.1,82,29.98,10.0,South,3.5,-,N/A,,Clear,190,2013-07-11 10:51:00
6:51 AM,75.9,71.1,85,29.98,10.0,Calm,Calm,-,N/A,,Clear,0,2013-07-11 11:51:00
7:51 AM,78.1,71.1,79,29.98,10.0,Variable,5.8,-,N/A,,Clear,0,2013-07-11 12:51:00
8:51 AM,82.0,72.0,71,29.97,10.0,SSW,5.8,-,N/A,,Partly Cloudy,200,2013-07-11 13:51:00
9:51 AM,86.0,72.0,63,29.97,10.0,Variable,6.9,-,N/A,,Scattered Clouds,0,2013-07-11 14:51:00
10:51 AM,88.0,71.1,57,29.96,10.0,WSW,5.8,-,N/A,,Partly Cloudy,240,2013-07-11 15:51:00
11:51 AM,91.9,68.0,45,29.96,10.0,Calm,Calm,-,N/A,,Partly Cloudy,0,2013-07-11 16:51:00
12:51 PM,95.0,66.9,40,29.95,10.0,SE,6.9,-,N/A,,Clear,130,2013-07-11 17:51:00
1:51 PM,99.0,64.0,32,29.93,10.0,Variable,5.8,-,N/A,,Clear,0,2013-07-11 18:51:00
2:51 PM,100.0,60.1,27,29.91,10.0,Calm,Calm,-,N/A,,Clear,0,2013-07-11 19:51:00
3:51 PM,98.1,59.0,27,29.88,10.0,Calm,Calm,-,N/A,,Clear,0,2013-07-11 20:51:00
4:51 PM,100.9,57.9,24,29.86,10.0,South,8.1,-,N/A,,Clear,180,2013-07-11 21:51:00
5:51 PM,100.0,57.0,24,29.85,10.0,Variable,4.6,-,N/A,,Clear,0,2013-07-11 22:51:00
6:51 PM,99.0,57.0,25,29.84,10.0,South,6.9,-,N/A,,Clear,170,2013-07-11 23:51:00
7:51 PM,95.0,57.0,28,29.85,10.0,South,6.9,-,N/A,,Clear,170,2013-07-12 00:51:00
8:51 PM,93.0,59.0,32,29.86,10.0,South,4.6,-,N/A,,Clear,170,2013-07-12 01:51:00
9:51 PM,91.9,60.1,34,29.87,10.0,SSE,8.1,16.1,N/A,,Clear,160,2013-07-12 02:51:00
10:51 PM,89.1,64.0,43,29.88,10.0,SSE,5.8,-,N/A,,Clear,160,2013-07-12 03:51:00
11:51 PM,86.0,66.9,53,29.90,10.0,Variable,4.6,-,N/A,,Clear,0,2013-07-12 04:51:00